NOAA 10

Satellite information

Favourite Embed

Satellite Type and Status

PAYLOADIN ORBIT

Key statistics

Satellite NOAA 10 at a glance.

Uptime

14172

Days in orbit

Revolutions

≈ 14.3

Per day

Orbit

SSO

Sun Synchronous Orbit

Inclination

98.7

Latest

Satellite identification and parameters

Extended collection of information and parameters for NOAA 10.

Object identification

Identified? True

Debris? False

Object name: NOAA 10

International designator: 1986-073A

Object number (NORAD): 16969

Object ID (CCSDS): 16969

Country: UNITED STATES OF AMERICA (US)

Current information (Y/N): Y

RCS size: LARGE

Orbital parameters

Period: 100.769 minutes

Inclination: 98.6751 deg

SMA: 7173.161 km

Apoapsis: 802.896 km

Periapsis: 787.156 km

RAAN: 176.1358 deg

Eccentricy: 0.0010971

Argument of periapsis: 291.6806 deg

Mean anomaly: 128.4797 deg

Mean motion: 14.29015304 rev/day

Mean motion (dot): 0.00000095 rev/day2

B* drag term: 0.000055203 1/REarth

Two-line elements (TLE)

Creation date: July 5, 2025, 10:56 p.m.

Reference frame: TEME

Reference center: EARTH

Epoch: July 5, 2025, 9:07 p.m. UTC

TLE line 0: 0 NOAA 10

TLE line 1: 1 16969U 86073A 25186.88045164 .00000095 00000-0 55203-4 0 9996

TLE line 2: 2 16969 98.6751 176.1358 0010971 291.6806 128.4797 14.29015304 20201

Live tracking on map

Real-time ground track for satellite NOAA 10.

In-orbit conjunctions

A list of the most updated potential collisions computed for object NOAA 10.

Target Orbit TCA Probability of collision Miss distance Type
CZ-6A DEB LEO 2025-05-03 05:49:11 0.0006303404 135.0 (m) DEBRIS
FENGYUN 1C DEB SSO 2025-05-01 10:02:49 0.0003269695 431.0 (m) DEBRIS
FENGYUN 1C DEB SSO 2025-04-06 04:13:01 0.0001011669 952.0 (m) DEBRIS
FENGYUN 1C DEB SSO 2025-03-23 13:21:01 0.0008063296 263.0 (m) DEBRIS
CZ-6A DEB LEO 2025-03-17 01:56:33 0.0005175245 220.0 (m) DEBRIS

Associated space launch

Fourth generation NOAA meteorological satellite

NOAA 10 was lifted into orbit during the mission ‘Atlas E | NOAA 10’, on board a Atlas E space rocket.

The launch took place on Sept. 17, 1986, 3:52 p.m. from Space Launch Complex 3W.

For more information about the launch, click the button.

Launch to space Atlas E | NOAA 10
Atlas E | NOAA 10

Agency: N/A

Status: Launch Successful

Launch date: Sept. 17, 1986, 3:52 p.m. UTC

Rocket: Atlas E

Launch pad: Space Launch Complex 3W

Location: Vandenberg SFB, CA, USA

...

Latest news about this satellite

There are no fresh news available about this satellite. Check back as we update our databases every day.


Newsletter sign-up

Weekly statistics, charts and insights to help you stay on top of the space industry.